Location: Bacharowice
(49.9333°N, 19.5833°E)
Time: 04:36:01
(UTC+00:00)

Envisat - Pass Details

Date: 12 October 2022
Orbit: 763 x 765 km, 98.2° (Epoch: 09 December)

Event Time Altitude Azimuth Distance (km) Brightness Sun altitude
Rises 03:20:11 0° 13° (NNE) 3,247 6.5 -16.6°
Reaches altitude 10° 03:22:30 10° 12° (NNE) 2,316 5.7 -16.2°
Maximum altitude 03:27:37 81° 286° (WNW) 781 2.9 -15.4°
Drops below altitude 10° 03:32:41 10° 200° (SSW) 2,298 5.2 -14.6°
Sets 03:34:58 0° 200° (SSW) 3,219 6.0 -14.2°
